EW6167 Weather Reports


time (UTC)temp
C
wind
direction
speed
KPH
gust
KPH
rain 1hr
cm
rain 24hr
cm
rain mn
cm
humidity
%
barometer
mb
20260905181057 16 338 6.4 0.0 0.00 0.00 0.00 51 1010.1
20260905180554 16 22 6.4 0.0 0.00 0.00 0.00 52 1010.1
20260905180105 16 330 8.0 0.0 0.00 0.00 0.00 52 1010.3
20260905175518 16 355 6.4 0.0 0.00 0.00 0.00 53 1010.4
20260905175028 16 325 8.0 0.0 0.00 0.00 0.00 54 1010.4
20260905174535 15 325 9.7 0.0 0.00 0.00 0.00 54 1010.5
20260905174043 15 316 6.4 0.0 0.00 0.00 0.00 54 1010.5
20260905173546 15 311 6.4 0.0 0.00 0.00 0.00 55 1010.5
20260905173055 15 13 8.0 0.0 0.00 0.00 0.00 56 1010.6
20260905172505 15 331 8.0 0.0 0.00 0.00 0.00 55 1010.5
20260905172011 15 330 6.4 0.0 0.00 0.00 0.00 57 1010.6
20260905171529 15 324 8.0 0.0 0.00 0.00 0.00 57 1010.6
20260905171036 15 325 6.4 0.0 0.00 0.00 0.00 58 1010.6
20260905170539 14 360 8.0 0.0 0.00 0.00 0.00 58 1010.6
20260905170057 14 319 6.4 0.0 0.00 0.00 0.00 59 1010.6
20260905165502 14 349 6.4 0.0 0.00 0.00 0.00 60 1010.6
20260905165020 13 324 8.0 0.0 0.00 0.00 0.00 60 1010.7
20260905164544 13 355 8.0 0.0 0.00 0.00 0.00 61 1010.7
20260905164049 13 350 9.7 0.0 0.00 0.00 0.00 62 1010.7
20260905163507 13 347 11.3 0.0 0.00 0.00 0.00 62 1010.7
20260905163016 13 329 9.7 0.0 0.00 0.00 0.00 62 1010.6
20260905162524 13 310 9.7 0.0 0.00 0.00 0.00 63 1010.6
20260905162033 13 341 8.0 0.0 0.00 0.00 0.00 63 1010.5
20260905161541 13 340 8.0 0.0 0.00 0.00 0.00 62 1010.5
20260905161101 13 344 8.0 0.0 0.00 0.00 0.00 63 1010.5
20260905160501 13 5 4.8 0.0 0.00 0.00 0.00 62 1010.4
20260905160026 12 340 6.4 0.0 0.00 0.00 0.00 62 1010.4
20260905155533 12 325 6.4 0.0 0.00 0.00 0.00 62 1010.4
20260905155038 12 320 6.4 0.0 0.00 0.00 0.00 63 1010.3
20260905154600 12 355 8.0 0.0 0.00 0.00 0.00 63 1010.3
20260905154054 12 343 6.4 0.0 0.00 0.00 0.00 64 1010.4
20260905153506 12 355 6.4 0.0 0.00 0.00 0.00 65 1010.4
20260905153027 12 346 6.4 0.0 0.00 0.00 0.00 65 1010.4
20260905152537 12 360 8.0 0.0 0.00 0.00 0.00 65 1010.4
20260905152043 12 360 6.4 0.0 0.00 0.00 0.00 64 1010.3
20260905151552 12 333 6.4 0.0 0.00 0.00 0.00 65 1010.5
20260905151008 12 346 6.4 0.0 0.00 0.00 0.00 65 1010.4
20260905150519 12 325 4.8 0.0 0.00 0.00 0.00 65 1010.4
20260905150035 12 43 4.8 0.0 0.00 0.00 0.00 66 1010.4
20260905145542 12 20 4.8 0.0 0.00 0.00 0.00 66 1010.4
20260905145052 11 69 3.2 0.0 0.00 0.00 0.00 67 1010.4
20260905144603 11 80 3.2 0.0 0.00 0.00 0.00 67 1010.5
20260905144005 11 80 3.2 0.0 0.00 0.00 0.00 69 1010.5
20260905143513 11 105 3.2 0.0 0.00 0.00 0.00 70 1010.6
20260905143035 11 105 3.2 0.0 0.00 0.00 0.00 71 1010.5
20260905142542 11 196 1.6 0.0 0.00 0.00 0.00 71 1010.5
20260905142054 10 207 1.6 0.0 0.00 0.00 0.00 74 1010.4
20260905141607 10 207 1.6 0.0 0.00 0.00 0.00 76 1010.3
20260905141009 9 207 1.6 0.0 0.00 0.00 0.00 78 1010.2
20260905140517 8 201 3.2 0.0 0.00 0.00 0.00 79 1010.3
20260905140021 8 201 4.8 0.0 0.00 0.00 0.00 80 1010.2
20260905135532 8 201 4.8 0.0 0.00 0.00 0.00 82 1010.2
20260905135042 7 201 6.4 0.0 0.00 0.00 0.00 83 1010.0
20260905134554 7 201 6.4 0.0 0.00 0.00 0.00 83 1009.9
20260905134014 7 201 6.4 0.0 0.00 0.00 0.00 83 1009.9
20260905133523 6 201 8.0 0.0 0.00 0.00 0.00 82 1009.8
20260905133029 6 201 8.0 0.0 0.00 0.00 0.00 84 1009.7
20260905132541 6 196 8.0 0.0 0.00 0.00 0.00 84 1009.3
20260905132056 6 195 6.4 0.0 0.00 0.00 0.00 84 1009.2
20260905131605 6 196 6.4 0.0 0.00 0.00 0.00 84 1009.1
20260905131022 6 195 3.2 0.0 0.00 0.00 0.00 83 1008.9
20260905130534 6 195 3.2 0.0 0.00 0.00 0.00 81 1008.9
20260905130042 6 195 3.2 0.0 0.00 0.00 0.00 81 1008.7
20260905125553 6 195 4.8 0.0 0.00 0.00 0.00 80 1008.7
20260905125015 7 195 6.4 0.0 0.00 0.00 0.00 80 1008.8
20260905124532 7 196 6.4 0.0 0.00 0.00 0.00 80 1008.7
20260905124040 7 195 6.4 0.0 0.00 0.00 0.00 80 1008.6
20260905123551 7 195 6.4 0.0 0.00 0.00 0.00 79 1008.6
20260905123105 7 195 4.8 0.0 0.00 0.00 0.00 80 1008.6
20260905122522 7 195 4.8 0.0 0.00 0.00 0.00 81 1008.5
20260905122042 7 196 4.8 0.0 0.00 0.00 0.00 82 1008.4
20260905121555 7 195 4.8 0.0 0.00 0.00 0.00 82 1008.3
20260905121003 6 195 4.8 0.0 0.00 0.00 0.00 81 1008.3
20260905120527 6 105 3.2 0.0 0.00 0.00 0.00 81 1008.3
20260905120046 6 105 3.2 0.0 0.00 0.00 0.00 80 1008.3
20260905115603 7 105 3.2 0.0 0.00 0.00 0.00 80 1008.2
20260905115012 7 105 4.8 0.0 0.00 0.00 0.00 80 1008.2
20260905114532 7 105 6.4 0.0 0.00 0.00 0.00 80 1008.2
20260905114041 7 105 6.4 0.0 0.00 0.00 0.00 79 1008.1
20260905113549 7 105 8.0 0.0 0.00 0.00 0.00 79 1008.1
20260905113120 7 105 8.0 0.0 0.00 0.00 0.00 79 1008.1
20260905112506 7 105 6.4 0.0 0.00 0.00 0.00 80 1008.0
20260905112015 7 9 4.8 0.0 0.00 0.00 0.00 79 1008.0
20260905111534 7 342 4.8 0.0 0.00 0.00 0.00 78 1007.9
20260905111046 7 342 6.4 0.0 0.00 0.00 0.00 78 1007.8
20260905110600 7 342 8.0 0.0 0.00 0.00 0.00 79 1007.9
20260905110018 7 342 8.0 0.0 0.00 0.00 0.00 78 1007.8
20260905105535 7 342 6.4 0.0 0.00 0.00 0.00 78 1007.7
20260905105054 7 342 4.8 0.0 0.00 0.00 0.00 76 1007.7
20260905104603 8 342 4.8 0.0 0.00 0.00 0.00 75 1007.6
20260905104017 8 342 6.4 0.0 0.00 0.00 0.00 74 1007.5
20260905103535 8 342 4.8 0.0 0.00 0.00 0.00 71 1007.4
20260905103049 9 342 3.2 0.0 0.00 0.00 0.00 71 1007.5
20260905102557 10 342 1.6 0.0 0.00 0.00 0.00 70 1007.5
20260905102012 10 342 1.6 0.0 0.00 0.00 0.00 71 1007.4
20260905101524 10 342 1.6 0.0 0.00 0.00 0.00 70 1007.4
20260905101039 10 342 3.2 0.0 0.00 0.00 0.00 70 1007.4
20260905100552 10 342 3.2 0.0 0.00 0.00 0.00 69 1007.3
20260905100108 11 342 3.2 0.0 0.00 0.00 0.00 69 1007.3
20260905095516 11 342 4.8 0.0 0.00 0.00 0.00 69 1007.1
20260905095032 11 342 4.8 0.0 0.00 0.00 0.00 68 1007.1
20260905094543 11 342 3.2 0.0 0.00 0.00 0.00 68 1007.0
20260905094059 11 342 3.2 0.0 0.00 0.00 0.00 68 1007.0
20260905093507 11 342 6.4 0.0 0.00 0.00 0.00 67 1006.9
20260905093017 11 342 8.0 0.0 0.00 0.00 0.00 67 1006.9
20260905092539 11 342 9.7 0.0 0.00 0.00 0.00 67 1006.7
20260905092053 11 340 11.3 0.0 0.00 0.00 0.00 66 1006.7
20260905091513 12 329 12.9 0.0 0.00 0.00 0.00 66 1006.7
20260905091027 12 327 9.7 0.0 0.00 0.00 0.00 65 1006.7
20260905090536 12 329 8.0 0.0 0.00 0.00 0.00 65 1006.5
20260905090048 12 319 9.7 0.0 0.00 0.00 0.00 64 1006.5
20260905085504 12 320 8.0 0.0 0.00 0.00 0.00 63 1006.4
20260905085105 12 323 9.7 0.0 0.00 0.00 0.00 63 1006.3
20260905084601 12 321 8.0 0.0 0.00 0.00 0.00 63 1006.2
20260905084002 12 322 4.8 0.0 0.00 0.00 0.00 63 1006.2
20260905083602 11 13 3.2 0.0 0.00 0.00 0.00 63 1006.1
20260905083110 11 53 4.8 0.0 0.00 0.00 0.00 63 1006.2
20260905082603 12 27 8.0 0.0 0.00 0.00 0.00 63 1006.0
20260905082003 12 28 11.3 0.0 0.00 0.00 0.00 62 1005.7
20260905081605 12 36 9.7 0.0 0.00 0.00 0.00 62 1005.9
20260905081001 12 60 8.0 0.0 0.00 0.00 0.00 60 1006.3
20260905080557 12 44 9.7 0.0 0.00 0.00 0.00 60 1006.1
20260905080053 11 82 9.7 0.0 0.00 0.00 0.00 59 1006.1
20260905075554 11 47 8.0 0.0 0.00 0.00 0.00 57 1005.6
20260905075054 11 63 4.8 0.0 0.00 0.00 0.00 58 1005.7
20260905074549 11 42 3.2 0.0 0.00 0.00 0.00 57 1005.9
20260905074050 11 42 3.2 0.0 0.00 0.00 0.00 57 1005.5
20260905073550 11 42 3.2 0.0 0.00 0.00 0.00 56 1005.4
20260905073043 11 42 4.8 0.0 0.00 0.00 0.00 56 1005.2
20260905072543 11 34 6.4 0.0 0.00 0.00 0.00 56 1004.9
20260905072051 11 55 6.4 0.0 0.00 0.00 0.00 57 1005.0
20260905071551 11 84 8.0 0.0 0.00 0.00 0.00 55 1005.0
20260905071052 11 355 6.4 0.0 0.00 0.00 0.00 54 1004.9
20260905070558 11 355 9.7 0.0 0.00 0.00 0.00 54 1004.7
20260905070059 11 355 11.3 0.0 0.00 0.00 0.00 53 1004.7
20260905065603 11 323 9.7 0.0 0.00 0.00 0.00 55 1004.8
20260905065002 11 308 8.0 0.0 0.00 0.00 0.00 56 1004.4
20260905064607 11 259 8.0 0.0 0.00 0.00 0.00 56 1004.1
20260905064104 11 286 4.8 0.0 0.00 0.00 0.00 56 1004.1
20260905063553 11 286 4.8 0.0 0.00 0.00 0.00 53 1003.9
20260905063056 11 286 4.8 0.0 0.00 0.00 0.00 53 1003.7
20260905062549 11 286 6.4 0.0 0.00 0.00 0.00 54 1003.6
20260905062050 12 286 6.4 0.0 0.00 0.00 0.00 53 1003.7
20260905061607 12 339 6.4 0.0 0.00 0.00 0.00 52 1003.8
20260905061004 12 339 4.8 0.0 0.00 0.00 0.00 52 1003.8
20260905060609 12 339 4.8 0.0 0.00 0.00 0.00 52 1003.8
20260905060101 12 227 3.2 0.0 0.00 0.00 0.00 49 1003.7
20260905055557 12 202 4.8 0.0 0.00 0.00 0.00 49 1003.9
20260905055104 13 203 8.0 0.0 0.00 0.00 0.00 48 1003.7
20260905054557 13 196 9.7 0.0 0.00 0.00 0.00 46 1003.7
20260905054105 13 155 9.7 0.0 0.00 0.00 0.00 46 1003.6
20260905053502 13 133 9.7 0.0 0.00 0.00 0.00 46 1003.5
20260905053002 13 152 9.7 0.0 0.00 0.00 0.00 46 1003.7
20260905052602 13 143 11.3 0.0 0.00 0.00 0.00 45 1003.8
20260905052011 13 157 11.3 0.0 0.00 0.00 0.00 45 1003.7
20260905051510 13 145 11.3 0.0 0.00 0.00 0.00 45 1003.8
20260905051011 13 165 11.3 0.0 0.00 0.00 0.00 45 1003.8
20260905050525 14 148 12.9 0.0 0.00 0.00 0.00 44 1003.8
20260905050032 15 168 12.9 0.0 0.00 0.00 0.00 43 1004.0
20260905045530 15 169 12.9 0.0 0.00 0.00 0.00 42 1004.1
20260905045037 15 191 14.5 0.0 0.00 0.00 0.00 42 1004.2
20260905044531 15 175 14.5 0.0 0.00 0.00 0.00 42 1004.3
20260905044037 15 181 14.5 0.0 0.00 0.00 0.00 42 1004.6
20260905043532 15 159 12.9 0.0 0.00 0.00 0.00 42 1004.4
20260905043049 15 163 14.5 0.0 0.00 0.00 0.00 42 1004.5
20260905042530 15 159 16.1 0.0 0.00 0.00 0.00 42 1004.6
20260905042039 15 188 14.5 0.0 0.00 0.00 0.00 42 1004.8
20260905041538 15 193 14.5 0.0 0.00 0.00 0.00 42 1004.8
20260905041036 15 182 14.5 0.0 0.00 0.00 0.00 42 1004.8
20260905040542 15 170 14.5 0.0 0.00 0.00 0.00 42 1004.8
20260905040055 15 180 14.5 0.0 0.00 0.00 0.00 42 1004.9
20260905035549 15 190 11.3 0.0 0.00 0.00 0.00 42 1005.0
20260905035047 15 198 11.3 0.0 0.00 0.00 0.00 42 1005.0
20260905034604 15 199 12.9 0.0 0.00 0.00 0.00 41 1005.0
20260905034006 15 175 12.9 0.0 0.00 0.00 0.00 41 1005.2
20260905033514 15 186 12.9 0.0 0.00 0.00 0.00 41 1005.2
20260905033030 15 192 12.9 0.0 0.00 0.00 0.00 42 1005.1
20260905032532 14 159 11.3 0.0 0.00 0.00 0.00 43 1005.2
20260905032031 14 176 9.7 0.0 0.00 0.00 0.00 43 1005.2
20260905031535 13 177 8.0 0.0 0.00 0.00 0.00 43 1005.2
20260905031039 13 183 8.0 0.0 0.00 0.00 0.00 43 1005.0
20260905030554 13 188 8.0 0.0 0.00 0.00 0.00 43 1005.1
20260905030006 13 194 8.0 0.0 0.00 0.00 0.00 43 1005.2
20260905025502 13 192 6.4 0.0 0.00 0.00 0.00 42 1005.1
20260905025002 13 179 6.4 0.0 0.00 0.00 0.00 42 1005.1
20260905024606 14 178 6.4 0.0 0.00 0.00 0.00 42 1005.0
20260905024002 15 190 6.4 0.0 0.00 0.00 0.00 40 1004.9
20260905023605 15 198 8.0 0.0 0.00 0.00 0.00 40 1004.9
20260905023104 15 195 8.0 0.0 0.00 0.00 0.00 39 1004.8
20260905022601 15 188 9.7 0.0 0.00 0.00 0.00 39 1004.8
20260905022011 15 192 8.0 0.0 0.00 0.00 0.00 39 1004.7
20260905021527 15 196 8.0 0.0 0.00 0.00 0.00 38 1004.7
20260905021027 16 176 6.4 0.0 0.00 0.00 0.00 36 1004.6
20260905020537 17 142 4.8 0.0 0.00 0.00 0.00 35 1004.6
20260905020103 17 176 6.4 0.0 0.00 0.00 0.00 33 1004.5
20260905015549 18 176 8.0 0.0 0.00 0.00 0.00 33 1004.4
20260905015050 18 171 8.0 0.0 0.00 0.00 0.00 32 1004.3
20260905014600 19 163 9.7 0.0 0.00 0.00 0.00 31 1004.4
20260905014057 20 168 11.3 0.0 0.00 0.00 0.00 30 1004.3
20260905013558 20 173 12.9 0.0 0.00 0.00 0.00 29 1004.4
20260905013109 20 175 12.9 0.0 0.00 0.00 0.00 29 1004.2
20260905012556 21 169 11.3 0.0 0.00 0.00 0.00 28 1004.2
20260905012102 21 178 12.9 0.0 0.00 0.00 0.00 28 1004.2
20260905011628 21 157 12.9 0.0 0.00 0.00 0.00 28 1004.1
20260905011052 21 192 12.9 0.0 0.00 0.00 0.00 27 1004.0
20260905010506 21 170 16.1 0.0 0.00 0.00 0.00 27 1004.0
20260905010001 22 188 16.1 0.0 0.00 0.00 0.00 26 1004.0
20260905005503 22 192 16.1 0.0 0.00 0.00 0.00 26 1004.0
20260905005105 22 195 16.1 0.0 0.00 0.00 0.00 26 1003.9
20260905004600 22 169 19.3 0.0 0.00 0.00 0.00 26 1003.9
20260905004102 22 161 19.3 0.0 0.00 0.00 0.00 26 1003.8
20260905003501 22 161 17.7 0.0 0.00 0.00 0.00 26 1003.8
20260905003010 22 167 19.3 0.0 0.00 0.00 0.00 25 1003.7
20260905002513 22 171 19.3 0.0 0.00 0.00 0.00 25 1003.8
20260905002022 22 189 19.3 0.0 0.00 0.00 0.00 25 1003.8
20260905001547 22 142 20.9 0.0 0.00 0.00 0.00 25 1003.7
20260905001040 22 195 22.5 0.0 0.00 0.00 0.00 24 1003.7
20260905000544 22 140 20.9 0.0 0.00 0.00 0.00 24 1003.6
20260905000050 22 137 20.9 0.0 0.00 0.00 0.00 24 1003.6
20260904235504 22 115 20.9 0.0 0.00 0.00 0.00 24 1003.6
20260904235059 23 161 20.9 0.0 0.00 0.00 0.00 24 1003.6
20260904234555 23 227 19.3 0.0 0.00 0.00 0.00 24 1003.6
20260904234052 23 182 19.3 0.0 0.00 0.00 0.00 24 1003.6
20260904233557 22 173 20.9 0.0 0.00 0.00 0.00 24 1003.5
20260904233105 22 177 20.9 0.0 0.00 0.00 0.00 24 1003.6
20260904232503 22 173 19.3 0.0 0.00 0.00 0.00 24 1003.6
20260904232012 22 184 20.9 0.0 0.00 0.00 0.00 24 1003.7
20260904231521 23 193 22.5 0.0 0.00 0.00 0.00 23 1003.6
20260904231030 23 229 24.1 0.0 0.00 0.00 0.00 23 1003.6
20260904230534 23 194 25.7 0.0 0.00 0.00 0.00 24 1003.7
20260904230039 23 167 25.7 0.0 0.00 0.00 0.00 24 1003.6
20260904225554 23 182 27.4 0.0 0.00 0.00 0.00 24 1003.6
20260904225003 23 187 27.4 0.0 0.00 0.00 0.00 23 1003.6
20260904224523 23 196 25.7 0.0 0.00 0.00 0.00 24 1003.7
20260904224042 23 209 25.7 0.0 0.00 0.00 0.00 23 1003.7
20260904223551 22 171 27.4 0.0 0.00 0.00 0.00 24 1003.7
20260904223100 22 190 29.0 0.0 0.00 0.00 0.00 23 1003.8
20260904222514 22 168 27.4 0.0 0.00 0.00 0.00 24 1003.6
20260904222032 22 190 30.6 0.0 0.00 0.00 0.00 24 1003.7
20260904221540 22 163 33.8 0.0 0.00 0.00 0.00 24 1003.7
20260904221058 22 165 33.8 0.0 0.00 0.00 0.00 24 1003.7
20260904220515 23 148 29.0 0.0 0.00 0.00 0.00 24 1003.7
20260904220031 22 117 27.4 0.0 0.00 0.00 0.00 25 1003.6
20260904215551 22 211 27.4 0.0 0.00 0.00 0.00 25 1003.5
20260904215105 23 172 29.0 0.0 0.00 0.00 0.00 24 1003.6
20260904214508 22 148 29.0 0.0 0.00 0.00 0.00 24 1003.6
20260904214017 23 188 29.0 0.0 0.00 0.00 0.00 25 1003.6
20260904213539 22 178 33.8 0.0 0.00 0.00 0.00 25 1003.6
20260904213054 22 145 33.8 0.0 0.00 0.00 0.00 25 1003.6
20260904212545 23 154 32.2 0.0 0.00 0.00 0.00 24 1003.6
20260904212038 23 155 30.6 0.0 0.00 0.00 0.00 25 1003.7
20260904211549 22 178 30.6 0.0 0.00 0.00 0.00 25 1003.6
20260904211052 23 178 32.2 0.0 0.00 0.00 0.00 25 1003.5
20260904210603 23 129 32.2 0.0 0.00 0.00 0.00 25 1003.4
20260904210015 22 169 30.6 0.0 0.00 0.00 0.00 27 1003.4
20260904205532 22 169 30.6 0.0 0.00 0.00 0.00 26 1003.5
20260904205033 21 159 29.0 0.0 0.00 0.00 0.00 28 1003.4
20260904204541 22 174 27.4 0.0 0.00 0.00 0.00 27 1003.5
20260904204048 22 173 27.4 0.0 0.00 0.00 0.00 27 1003.5
20260904203549 22 175 27.4 0.0 0.00 0.00 0.00 28 1003.5
20260904203054 22 192 27.4 0.0 0.00 0.00 0.00 27 1003.5
20260904202555 22 181 30.6 0.0 0.00 0.00 0.00 27 1003.6
20260904202053 22 163 32.2 0.0 0.00 0.00 0.00 27 1003.6
20260904201603 22 152 30.6 0.0 0.00 0.00 0.00 27 1003.5
20260904201107 22 180 32.2 0.0 0.00 0.00 0.00 26 1003.4
20260904200514 22 181 30.6 0.0 0.00 0.00 0.00 27 1003.4
20260904200023 22 135 30.6 0.0 0.00 0.00 0.00 26 1003.6
20260904195526 22 162 30.6 0.0 0.00 0.00 0.00 27 1003.4
20260904195035 22 184 32.2 0.0 0.00 0.00 0.00 27 1003.4
20260904194605 22 189 29.0 0.0 0.00 0.00 0.00 27 1003.5
20260904194058 22 169 27.4 0.0 0.00 0.00 0.00 27 1003.5
20260904193600 22 128 27.4 0.0 0.00 0.00 0.00 28 1003.4
20260904193004 21 159 30.6 0.0 0.00 0.00 0.00 28 1003.7
20260904192520 22 142 32.2 0.0 0.00 0.00 0.00 28 1003.7
20260904192030 22 151 35.4 0.0 0.00 0.00 0.00 27 1003.6
20260904191540 22 158 33.8 0.0 0.00 0.00 0.00 27 1003.6
20260904191041 22 181 32.2 0.0 0.00 0.00 0.00 26 1003.6
20260904190544 21 166 33.8 0.0 0.00 0.00 0.00 26 1003.6
20260904190050 22 168 33.8 0.0 0.00 0.00 0.00 26 1003.5
20260904185553 22 177 33.8 0.0 0.00 0.00 0.00 26 1003.5
20260904185054 22 171 33.8 0.0 0.00 0.00 0.00 26 1003.4
20260904184602 21 150 32.2 0.0 0.00 0.00 0.00 25 1003.3
20260904184018 21 180 33.8 0.0 0.00 0.00 0.00 26 1003.3
20260904183527 21 175 33.8 0.0 0.00 0.00 0.00 25 1003.4
20260904183028 21 213 32.2 0.0 0.00 0.00 0.00 25 1003.3
20260904182538 21 171 33.8 0.0 0.00 0.00 0.00 25 1003.3
20260904182050 21 194 33.8 0.0 0.00 0.00 0.00 25 1003.3
20260904181605 21 143 33.8 0.0 0.00 0.00 0.00 25 1003.3